Location: Peebles
(55.6412°N, 3.1714°W)
Time: 19:07:05
(UTC+00:00)

USA 238 DEB - Visible Passes

Search period start: 19 January 2022 00:00
Search period end: 29 January 2022 00:00
Orbit: 977 x 1235 km, 63.4° (Epoch: 13 January)

Date Brightness Start Highest point End Pass type
(mag) Time Alt. Az. Time Alt. Az. Time Alt. Az.
19 Jan 4.3 17:09:03 10° S 17:14:57 37° ESE 17:21:09 10° ENE visible
19 Jan 3.7 18:58:48 10° WSW 19:05:26 79° NW 19:08:47 34° NE visible
19 Jan 4.5 20:50:41 10° W 20:56:14 44° NNW 20:56:14 44° NNW visible
19 Jan 6.1 22:42:37 10° WNW 22:43:41 15° NW 22:43:41 15° NW visible
20 Jan 3.6 18:13:59 10° SW 18:20:35 82° SE 18:25:34 21° NE visible
20 Jan 4.2 20:05:30 10° W 20:12:04 51° NNW 20:13:01 48° N visible
20 Jan 5.5 21:57:35 10° WNW 22:00:28 25° NW 22:00:28 25° NW visible
21 Jan 3.8 17:29:22 10° SSW 17:35:49 62° SE 17:42:20 12° NE visible
21 Jan 4.0 19:20:22 10° WSW 19:26:58 59° NNW 19:29:47 36° NE visible
21 Jan 4.8 21:12:29 10° WNW 21:17:13 38° NW 21:17:13 38° NW visible
21 Jan 6.2 23:04:05 10° NW 23:04:40 13° NW 23:04:40 13° NW visible
22 Jan 3.8 18:35:18 10° WSW 18:41:57 70° NNW 18:46:30 23° NE visible
22 Jan 4.4 20:27:20 10° WNW 20:33:52 46° N 20:33:57 46° N visible
22 Jan 5.7 22:19:08 10° WNW 22:21:23 22° NW 22:21:23 22° NW visible
23 Jan 3.7 17:50:23 10° SW 17:57:01 87° NW 18:03:14 14° NE visible
23 Jan 4.3 19:42:09 10° W 19:48:41 48° NNW 19:50:40 39° NNE visible
23 Jan 5.1 21:34:09 10° WNW 21:38:06 33° NW 21:38:06 33° NW visible
23 Jan 6.3 23:25:25 10° NW 23:25:33 11° NW 23:25:33 11° NW visible
24 Jan 3.8 17:05:39 10° SW 17:12:12 74° SE 17:19:11 10° NE visible
24 Jan 4.2 18:56:58 10° W 19:03:32 54° NNW 19:07:22 27° NE visible
24 Jan 4.5 20:49:05 10° WNW 20:54:48 44° NNW 20:54:48 44° NNW visible
24 Jan 5.9 22:40:33 10° NW 22:42:14 19° NW 22:42:14 19° NW visible
25 Jan 4.0 18:11:52 10° WSW 18:18:28 63° NNW 18:24:03 17° NE visible
25 Jan 4.3 20:03:58 10° WNW 20:10:32 45° N 20:11:30 43° NNE visible
25 Jan 5.3 21:55:39 10° NW 21:58:56 30° NW 21:58:56 30° NW visible
26 Jan 3.8 17:26:51 10° WSW 17:33:29 76° NW 17:40:36 10° NE visible
26 Jan 4.4 19:18:48 10° W 19:25:19 47° N 19:28:10 32° NE visible
26 Jan 4.7 21:10:41 10° WNW 21:15:37 42° NNW 21:15:37 42° NNW visible
26 Jan 6.1 23:01:52 10° NW 23:03:03 16° NW 23:03:03 16° NW visible
27 Jan 4.3 18:33:36 10° W 18:40:10 50° NNW 18:44:51 21° NE visible
27 Jan 4.3 20:25:40 10° WNW 20:32:18 48° N 20:32:18 48° N visible
27 Jan 5.5 22:17:00 10° NW 22:19:44 26° NW 22:19:44 26° NW visible
28 Jan 4.1 17:48:27 10° WSW 17:55:03 57° NNW 18:01:32 12° NE visible
28 Jan 4.3 19:40:35 10° WNW 19:47:11 46° N 19:48:58 39° NE visible
28 Jan 4.8 21:32:07 10° NW 21:36:25 40° NW 21:36:25 40° NW visible
28 Jan 6.2 23:23:13 10° NW 23:23:51 13° NW 23:23:51 13° NW visible
